Location: Corcelles
(46.1547°N, 4.7234°E)
Time: 08:34:40
(UTC+00:00)

Meteor 1-25 Rocket - Pass Details

Date: 14 July 2020
Orbit: 837 x 890 km, 81.2° (Epoch: 14 August)

Event Time Altitude Azimuth Distance (km) Brightness Sun altitude
Exits shadow 00:47:43 42° 196° (SSW) 1,186 4.5 -20.8°
Maximum altitude 00:49:42 84° 280° (W) 856 4.1 -20.7°
Drops below altitude 10° 00:55:18 10° 10° (N) 2,466 7.8 -20.5°
Sets 00:57:43 0° 11° (N) 3,403 8.9 -20.3°
